Date,TemperatureHighF,TemperatureAvgF,TemperatureLowF,DewpointHighF,DewpointAvgF,DewpointLowF,HumidityHigh,HumidityAvg,HumidityLow,PressureMaxIn,PressureMinIn,WindSpeedMaxMPH,WindSpeedAvgMPH,GustSpeedMaxMPH,PrecipitationSumIn
2013-1-8,42,27,14,18,12,1,67,52,38,29.95,29.80,9,3,17,0.00
2013-1-9,37,32,22,24,19,13,73,59,50,29.99,29.54,5,2,11,0.00
2013-1-10,44,36,26,30,20,14,83,53,39,30.11,29.55,10,3,25,0.01
2013-1-11,38,30,23,30,19,12,86,63,38,30.10,29.82,4,1,9,0.01
2013-1-12,38,35,33,36,32,30,93,88,85,29.82,29.70,4,1,7,0.11
2013-1-13,42,38,34,40,35,31,95,91,88,29.75,26.68,4,2,8,0.04
2013-1-14,54,42,32,49,34,19,95,76,45,29.82,29.44,8,3,19,0.02
2013-1-15,34,33,32,23,21,20,66,61,56,29.85,29.81,2,0,7,0.00
2013-1-16,29,28,27,24,22,21,82,78,75,29.55,29.37,2,0,4,0.00
2013-1-17,28,27,27,23,22,22,82,82,81,29.38,29.37,0,0,0,0.00
2013-1-20,41,29,23,12,0,-7,33,28,23,29.44,29.12,16,12,30,0.09
2013-1-21,25,20,13,9,-3,-16,68,39,19,29.63,29.39,9,3,14,0.00
2013-1-22,24,14,5,8,-3,-20,68,50,23,29.61,29.35,10,2,22,0.00
2013-1-23,6,0,-4,-17,-28,-34,40,24,17,29.67,29.58,11,4,24,0.01
2013-1-24,11,2,-6,-20,-28,-33,30,23,17,29.70,29.54,12,6,24,0.00
2013-1-25,17,9,2,-13,-18,-22,40,28,19,29.79,29.61,10,5,16,0.00
2013-1-26,21,12,5,-8,-14,-21,44,30,17,29.73,29.55,8,3,15,0.00
2013-1-27,25,14,9,-9,-14,-20,39,27,18,29.98,29.70,10,5,21,0.00
2013-1-28,22,18,10,12,-3,-20,69,42,20,29.98,29.64,4,1,8,0.00
2013-1-29,34,21,11,27,12,2,86,67,59,29.77,29.62,4,1,6,0.00
2013-1-30,54,41,32,52,38,28,95,91,87,29.70,29.03,7,2,14,0.28
2013-1-31,60,56,53,55,53,50,95,89,81,29.03,28.46,15,10,35,0.90
2013-2-1,30,20,14,10,-6,-11,52,32,20,29.62,29.08,13,5,21,0.04
2013-2-2,23,18,10,7,-2,-10,58,42,28,29.77,29.62,8,3,17,0.00
2013-2-3,29,22,16,8,6,2,68,51,34,29.63,29.29,3,1,7,0.00
2013-2-4,28,21,14,11,-4,-18,68,37,16,29.47,29.27,13,5,32,0.00
2013-2-5,29,16,6,0,-10,-17,46,30,18,29.60,29.46,8,2,15,0.00
2013-2-6,36,23,15,16,4,-20,68,47,16,30.83,29.52,8,3,17,0.00
2013-2-7,26,15,9,-9,-17,-20,31,22,16,30.10,29.85,8,3,14,0.00
2013-2-8,15,12,9,5,-1,-19,69,57,20,30.08,29.39,5,3,13,0.00
2013-2-9,21,15,5,14,7,-5,75,69,61,29.74,29.29,4,2,14,0.00
2013-2-10,36,16,2,2,-4,-10,62,43,17,29.95,29.74,6,2,10,0.00
2013-2-11,28,23,15,22,11,-6,79,62,33,29.91,29.19,3,1,6,0.00
2013-2-12,38,32,27,29,27,22,89,81,65,29.21,29.16,6,2,12,0.00
2013-2-28,35,33,33,31,29,29,86,85,85,29.12,29.09,3,0,3,0.04
2013-3-1,38,33,29,29,26,25,86,76,60,29.21,29.08,5,0,5,0.02
2013-3-13,46,40,30,34,24,19,73,54,37,29.30,29.24,17,5,17,0.70
2013-3-14,34,28,0,22,12,-6,75,49,33,29.31,29.18,19,7,19,0.00
2013-3-15,35,22,14,24,3,-8,82,45,26,29.32,29.13,17,6,17,0.02
2013-3-16,32,26,17,24,7,-3,82,48,24,29.41,29.18,10,3,10,0.00
2013-3-17,29,22,13,5,-4,-19,56,33,17,29.82,29.40,19,5,19,0.00
2013-3-18,34,22,9,14,-6,-13,54,31,17,29.95,29.78,12,3,12,0.00
2013-3-20,35,30,26,18,13,8,58,48,41,29.27,29.18,22,8,22,0.01
2013-3-21,33,23,15,12,8,5,68,53,35,29.29,29.15,11,3,11,0.00
2013-4-2,33,29,28,9,6,4,39,37,32,29.37,29.28,21,10,21,0.00
2013-4-3,43,33,25,7,2,-5,43,28,17,29.60,29.36,27,11,27,0.00
2013-4-5,56,46,33,20,15,10,50,31,18,29.41,29.22,17,6,17,0.00
2013-4-6,33,28,24,10,-2,-12,38,27,17,29.68,29.41,22,8,22,0.00
2013-4-13,49,43,38,36,33,31,89,70,50,29.47,29.34,8,2,8,1.04
2013-4-14,45,31,0,36,32,25,89,59,46,30.10,29.44,14,2,14,0.04
2013-4-15,33,33,33,28,28,28,83,82,82,30.26,30.25,2,2,2,0.00
2013-4-16,64,57,50,48,42,32,78,59,36,30.23,29.91,24,11,24,0.00
2013-4-17,67,52,38,49,28,17,79,43,17,30.27,29.92,17,5,17,0.00
2013-4-18,56,46,32,35,25,13,69,46,21,30.38,30.06,15,4,15,0.00
2013-4-19,73,61,50,59,51,29,91,71,42,30.06,29.53,22,9,24,0.00
2013-4-20,64,48,38,59,32,16,91,57,26,30.10,29.54,24,10,24,0.24
2013-4-21,57,40,31,21,14,6,58,36,16,30.59,30.09,20,5,20,0.00
2013-4-22,53,40,30,27,17,8,82,43,17,30.70,30.53,13,3,13,0.00
2013-4-23,40,35,30,38,31,26,94,85,72,30.53,30.08,6,2,6,0.00
2013-4-24,75,54,39,50,44,37,95,72,29,30.08,29.67,14,4,14,0.02
2013-4-25,60,53,38,47,30,17,73,45,20,30.21,29.63,24,8,24,0.00
2013-4-26,59,47,33,34,26,19,67,46,24,30.35,30.21,11,2,11,0.00
2013-4-27,65,50,36,37,30,16,86,50,16,30.34,30.20,15,3,15,0.00
2013-4-28,69,53,36,38,32,26,81,50,20,30.27,30.15,15,4,15,0.00
2013-4-29,59,46,41,35,33,29,74,62,33,30.19,30.14,7,2,7,0.00
2013-5-12,67,58,47,53,40,25,82,52,38,30.07,29.88,19,7,19,0.37
2013-5-13,52,46,41,33,27,23,70,49,34,30.34,30.06,24,9,24,0.00
2013-5-14,57,47,36,34,28,18,83,51,23,30.33,30.26,15,3,15,0.00
2013-5-15,64,49,36,50,36,22,100,69,23,30.87,29.97,17,3,17,0.07
2013-5-16,76,61,50,55,42,24,96,59,16,30.13,29.92,24,6,24,0.00
2013-5-17,54,52,50,43,41,38,69,67,62,30.16,30.13,7,1,7,0.00
2013-5-20,72,62,51,62,57,50,100,86,67,30.37,30.26,16,4,16,0.26
2013-5-21,59,54,49,57,53,48,100,97,92,30.43,30.24,8,1,8,0.18
2013-5-22,59,53,49,56,51,48,100,95,89,30.33,30.20,5,0,5,0.30
2013-5-23,69,59,50,67,58,49,100,94,85,30.25,30.10,14,3,14,0.02
2013-5-24,69,61,48,66,58,48,100,90,74,30.16,29.96,12,4,12,0.48
2013-5-25,50,47,42,49,46,41,100,97,93,30.16,30.00,10,3,10,0.63
2013-6-8,57,57,57,57,57,57,100,100,100,30.02,30.02,6,4,6,1.38
2013-6-9,66,60,57,56,54,53,85,79,65,30.49,30.42,2,1,2,0.01
2013-6-10,62,56,54,56,53,52,96,91,77,30.53,30.38,3,0,3,0.00
2013-6-17,79,70,60,61,57,52,94,66,39,29.98,29.87,17,4,17,0.82
2013-6-18,62,59,54,58,56,52,97,90,75,30.08,29.97,7,1,7,0.01
2013-6-19,73,60,48,55,48,41,97,69,35,30.25,30.02,10,2,10,0.01
2013-6-20,75,62,49,53,48,42,96,63,35,30.35,30.25,11,2,11,0.00
2013-6-21,80,66,55,58,53,48,89,66,36,30.34,30.28,10,3,11,0.00
2013-6-22,80,69,60,69,62,55,100,80,52,30.32,30.20,8,1,8,0.01
2013-6-23,82,70,63,74,67,61,100,91,70,30.25,30.07,14,2,14,0.50
2013-6-24,88,74,67,71,67,62,97,82,45,30.11,29.98,19,3,19,0.01
2013-6-25,87,75,67,70,67,65,96,80,49,30.04,29.84,13,4,13,0.01
2013-6-26,75,68,60,70,66,59,97,93,75,29.99,29.83,5,1,5,0.08
2013-6-27,71,63,58,67,62,57,97,94,85,29.98,29.90,5,1,5,0.04
2013-6-28,64,60,56,64,59,56,100,96,94,29.91,29.63,8,2,8,0.74
2013-6-29,81,70,62,71,65,61,100,84,59,29.81,29.62,14,3,14,0.11
2013-6-30,83,73,66,73,67,63,100,85,57,30.04,29.81,20,3,20,0.39
2013-7-1,76,71,66,73,69,65,100,94,81,30.19,30.04,8,1,8,0.20
2013-7-2,71,67,60,70,66,58,100,96,94,30.30,30.18,6,1,6,0.08
2013-7-20,85,78,68,68,66,63,89,67,53,30.00,28.34,18,6,18,1.47
2013-7-21,78,70,62,65,61,55,92,74,47,30.21,30.00,8,2,8,0.00
2013-7-22,72,66,63,68,64,60,96,92,82,30.25,30.12,4,0,4,0.11
2013-7-23,69,65,61,68,63,59,100,95,93,30.12,29.76,7,0,7,1.91
2013-7-24,78,69,54,71,61,49,100,79,51,30.18,29.78,16,3,16,0.00
2013-7-25,71,61,51,61,53,47,92,76,53,30.31,30.18,7,1,7,0.00
2013-7-26,72,65,61,65,61,58,96,88,68,30.30,30.13,8,1,8,0.01
2013-7-27,80,70,61,65,60,51,94,74,38,30.23,30.03,11,3,11,0.00
2013-7-28,78,69,62,67,64,60,95,85,62,30.23,30.19,8,2,8,0.00
2013-8-13,69,67,64,66,64,62,95,91,84,30.03,29.89,8,1,8,2.10
2013-8-14,71,64,55,64,54,48,96,72,49,30.12,29.84,25,6,25,0.00
2013-8-15,72,62,53,55,51,47,91,69,42,30.30,30.11,17,4,17,0.00
2013-8-16,75,64,55,59,54,48,94,73,42,30.39,30.28,11,2,11,0.00
2013-8-17,76,63,56,60,56,47,96,79,40,30.48,30.39,13,2,13,0.00
2013-8-18,75,66,58,64,59,56,96,80,58,30.51,30.27,11,2,11,0.00
2013-8-19,80,70,59,64,59,56,96,72,45,30.27,30.13,17,3,17,0.00
2013-8-20,82,72,62,64,61,55,94,71,42,30.30,30.17,14,2,14,0.00
2013-8-21,84,71,63,68,63,59,94,78,45,30.34,30.21,11,2,11,0.00
2013-8-22,84,75,64,68,64,59,91,70,44,30.22,30.00,16,4,16,0.00
2013-8-23,77,69,59,64,54,42,83,61,33,30.35,30.01,10,2,10,0.00
2013-8-24,76,62,50,56,49,45,88,65,37,30.52,30.34,11,2,11,0.00
2013-8-25,78,65,54,60,54,49,97,72,40,30.56,30.34,11,2,11,0.00
2013-8-26,74,67,61,67,62,55,95,83,71,30.35,30.08,11,3,11,0.04
2013-8-28,67,66,56,65,64,54,96,95,91,30.50,30.17,4,0,4,0.26
2013-8-29,65,63,61,64,62,60,97,94,93,30.30,30.18,5,0,5,0.07
2013-8-30,68,62,61,63,60,59,96,94,82,30.22,30.11,9,1,9,0.01
2013-9-2,71,68,67,69,67,66,97,96,95,30.05,29.94,4,0,4,0.56
2013-9-3,67,67,66,66,66,66,97,97,97,29.95,29.92,2,0,2,0.00
2013-9-8,65,56,45,45,42,39,81,61,43,30.17,29.92,15,3,15,0.00
2013-9-9,68,56,43,49,44,38,95,66,40,30.29,30.17,17,4,17,0.00
2013-9-10,68,62,52,66,59,48,100,91,71,30.21,30.12,11,2,11,0.02
2013-9-11,71,68,66,69,67,65,97,97,95,30.16,30.12,3,1,5,0.00
2013-9-13,71,62,54,68,60,52,100,93,78,29.85,29.68,2,0,7,1.10
2013-9-14,54,54,53,52,52,52,95,94,94,29.85,29.85,0,0,0,0.00
2013-9-17,60,51,48,49,47,47,100,89,61,29.93,29.90,0,0,2,0.00
2013-9-18,70,56,46,52,47,42,100,75,37,29.91,29.72,7,2,14,0.00
2013-9-19,55,52,50,52,50,49,97,92,87,29.72,29.70,2,0,4,0.00
2013-9-24,61,53,46,46,44,39,94,73,50,29.51,29.42,8,2,17,0.00
2013-9-25,60,50,43,51,46,42,100,85,61,29.60,29.47,5,0,12,0.00
2013-9-26,65,53,42,54,46,41,100,81,54,29.75,29.60,5,1,9,0.00
2013-9-27,67,59,52,56,52,49,96,78,55,29.88,29.76,4,0,7,0.00
2013-9-28,70,56,49,58,51,47,100,85,46,29.96,29.88,1,0,4,0.00
2013-9-29,68,65,52,55,50,46,96,62,48,29.88,29.78,3,2,5,0.00
2013-10-3,73,66,56,55,50,44,80,59,37,29.67,29.61,7,2,14,0.00
2013-10-4,64,58,55,56,53,52,91,85,75,29.69,29.65,0,0,0,0.00
2013-10-5,63,58,54,53,49,43,86,72,53,29.75,29.67,2,0,4,0.00
2013-10-6,56,50,48,52,45,37,100,83,60,29.87,29.74,2,0,4,0.14
2013-10-7,64,53,49,62,52,48,97,94,79,30.41,29.39,12,2,21,0.95
2013-10-8,63,52,41,52,42,36,100,70,39,29.99,29.47,8,2,16,0.00
2013-10-9,63,48,36,47,40,34,100,77,41,30.75,29.97,3,0,7,0.00
2013-10-10,64,51,43,52,46,38,100,84,41,29.97,29.79,4,1,7,0.00
2013-10-11,67,55,47,52,48,45,100,82,48,30.53,29.72,1,0,5,0.00
2013-10-12,54,51,44,52,48,43,96,92,85,30.02,29.79,2,0,5,0.00
2013-10-13,55,50,43,49,45,42,100,85,68,30.06,29.99,2,0,4,0.00
2013-10-14,65,52,41,52,45,40,100,78,50,29.99,29.83,6,1,11,0.00
2013-10-15,63,57,50,52,50,46,90,79,61,29.88,29.79,3,0,6,0.00
2013-10-16,61,54,49,52,49,46,95,82,58,29.79,29.49,2,0,6,0.00
2013-10-17,74,57,50,54,49,45,96,77,40,29.50,29.30,8,2,14,0.00
2013-10-18,64,56,47,54,47,36,96,76,47,29.46,29.19,9,3,20,0.26
2013-10-19,62,52,42,45,41,36,89,66,46,29.55,29.34,7,2,14,0.00
2013-10-20,58,52,43,47,37,26,90,59,30,29.59,29.25,10,4,21,0.00
2013-10-21,61,49,38,44,39,34,97,68,44,29.69,29.57,6,1,13,0.00
2013-10-22,55,50,39,52,44,38,97,82,59,30.07,29.31,6,2,12,0.02
2013-10-23,49,40,37,39,35,31,100,83,54,29.95,29.31,5,0,9,0.00
2013-10-24,49,42,34,34,29,25,83,61,42,30.17,29.93,12,5,23,0.01
2013-10-25,46,38,32,32,27,21,88,65,40,30.42,30.16,8,2,17,0.00
2013-10-26,47,40,30,32,27,23,88,63,42,30.43,30.17,9,3,17,0.00
2013-10-27,52,44,34,34,30,25,73,57,37,30.34,30.09,8,3,16,0.00
2013-10-28,52,40,29,36,27,19,79,62,38,30.66,30.33,10,2,22,0.00
2013-10-29,49,33,25,26,18,10,74,57,21,30.75,30.65,6,2,13,0.00
2013-10-30,52,37,30,30,26,21,88,65,42,30.66,30.40,7,2,17,0.00
2013-10-31,59,45,34,58,42,30,100,89,75,30.54,30.06,10,2,21,0.21
2013-11-1,59,58,58,57,56,55,94,92,91,30.06,29.91,12,9,21,0.02
2013-11-5,39,35,32,30,26,23,79,69,57,29.92,29.84,2,0,4,0.05
2013-11-6,56,46,35,42,36,28,85,70,54,29.93,29.66,8,3,14,0.00
2013-11-7,56,49,35,53,43,25,94,79,58,29.74,29.40,9,3,16,0.12
2013-11-8,43,36,30,25,21,16,71,53,42,29.76,29.53,9,3,16,0.00
2013-11-9,41,36,32,22,18,14,57,47,39,29.89,29.76,7,3,17,0.00
2013-11-11,43,40,36,30,27,25,73,60,49,29.93,29.83,10,4,18,0.08
2013-11-12,43,31,25,32,14,8,65,49,35,30.10,29.81,10,4,19,0.00
2013-11-13,34,26,20,14,7,-1,60,43,26,30.21,30.04,11,4,17,0.00
2013-11-14,48,36,29,26,20,14,78,55,40,30.06,29.97,10,4,19,0.00
2013-11-15,54,39,30,24,20,12,79,50,20,30.16,30.05,7,2,13,0.00
2013-11-16,62,42,33,28,23,14,67,49,16,30.30,30.14,4,1,7,0.00
2013-11-17,41,37,30,40,34,23,100,90,68,30.30,29.85,4,2,7,0.17
2013-11-18,64,52,41,58,43,29,100,75,38,29.85,29.46,12,4,21,0.48
2013-11-19,44,34,27,30,15,10,61,45,32,30.23,29.58,10,4,24,0.00
2013-11-20,43,30,24,14,9,4,58,42,20,30.58,30.23,6,2,12,0.00
2013-11-21,43,32,23,19,13,3,77,49,19,29.93,29.63,8,1,14,0.00
2013-11-22,38,36,31,38,29,19,100,78,54,29.63,29.07,3,0,6,0.00
2013-11-23,40,34,24,39,22,8,100,64,31,29.18,29.00,14,4,26,0.01
2013-11-24,25,19,15,11,-3,-11,61,38,27,29.37,29.02,11,6,33,0.26
2013-11-25,28,21,14,5,-6,-12,39,30,18,29.58,29.37,10,5,23,0.00
2013-11-26,32,29,25,29,21,4,92,74,38,29.58,29.39,8,2,15,0.00
2013-11-27,32,32,31,31,30,29,94,93,92,29.39,29.25,3,2,6,0.00
2013-11-29,140,126,24,100,89,13,63,39,31,29.96,29.92,2,1,5,2.04
2013-11-30,28,28,27,13,11,10,53,49,47,29.81,29.78,5,4,11,0.00
2013-12-1,36,32,27,32,26,12,96,81,53,29.78,29.41,4,0,8,0.01
2013-12-2,37,34,32,36,33,31,96,95,93,29.42,29.29,0,0,4,0.01
2013-12-3,42,34,28,41,32,27,100,95,84,29.30,29.23,2,0,5,0.01
2013-12-4,42,32,26,28,23,19,96,69,49,29.56,29.28,5,1,11,0.00
2013-12-5,36,32,28,35,29,22,96,86,75,29.60,29.27,3,1,6,0.07
2013-12-6,44,39,32,41,32,16,100,78,45,29.48,29.22,6,2,13,0.05
2013-12-7,36,30,24,29,14,3,92,54,28,29.75,29.42,8,2,19,0.01
2013-12-8,32,24,20,9,3,-3,51,40,26,29.88,29.74,6,2,13,0.00
2013-12-9,26,23,20,22,15,5,87,73,44,29.83,29.18,4,2,8,0.00
2013-12-10,33,28,21,27,19,4,93,70,43,29.24,29.08,7,3,14,0.00
2013-12-11,30,23,15,16,7,3,81,50,36,29.46,29.24,12,5,22,0.00
2013-12-12,23,13,7,9,-7,-18,64,41,18,29.58,29.33,8,3,19,0.00
2013-12-13,25,12,0,7,-6,-21,67,44,23,29.69,29.25,11,2,27,0.00
2013-12-14,14,7,0,-1,-14,-25,66,39,19,29.90,29.60,5,1,9,0.00
2013-12-15,25,16,7,20,9,-2,83,72,66,29.60,28.77,6,3,13,0.00
2013-12-16,24,17,5,13,-1,-16,76,48,21,29.50,28.99,11,4,26,0.02
2013-12-17,12,5,-6,4,-9,-19,71,52,35,30.23,29.32,4,1,7,0.00
2013-12-18,33,21,12,17,11,4,78,65,44,29.33,29.18,7,1,15,0.00
2013-12-19,35,27,20,23,17,12,79,66,47,29.43,29.25,7,2,14,0.00
2013-12-20,40,34,30,31,27,23,89,76,60,29.46,29.26,0,0,0,0.01
2013-12-21,43,38,33,41,34,30,100,89,72,29.30,29.20,3,0,7,0.05
2013-12-22,39,31,28,38,30,25,100,95,89,29.42,29.20,3,0,7,0.33
2013-12-23,33,31,27,32,29,24,96,93,89,29.46,29.33,0,0,0,0.00
2013-12-24,33,25,14,32,18,3,97,74,58,29.53,29.39,1,0,16,0.00
2013-12-25,29,11,3,11,-2,-10,72,56,36,29.86,29.53,0,0,0,0.00
2013-12-26,21,16,11,16,8,0,81,71,50,29.82,29.44,0,0,0,0.00
2013-12-27,27,21,17,17,13,10,81,70,59,29.55,29.51,5,1,11,0.01
2013-12-28,37,29,17,30,21,11,87,73,66,29.52,29.31,7,2,11,0.00
2013-12-29,36,33,29,32,30,26,95,90,81,29.93,29.33,1,0,3,0.01
2013-12-30,34,25,4,33,17,-7,96,74,50,30.04,29.44,2,0,10,0.00
2013-12-31,18,5,-2,-1,-8,-14,66,55,36,30.04,27.72,0,0,0,0.00
2014-1-1,18,7,2,1,-3,-7,68,62,44,30.20,30.00,0,0,0,0.00
2014-1-2,0,-4,-5,-11,-15,-16,58,57,57,30.06,29.84,3,2,9,0.00